�������l�o���
Date,Time,MP-1(��Sv/h),MP-2(��Sv/h),MP-3(��Sv/h),MP-4(��Sv/h),MP-5(��Sv/h),MP-6(��Sv/h),MP-7(��Sv/h),MP-8(��Sv/h),����,����(m/s),���J
2017/12/26,00:00,0.884,1.472,0.924,1.745,1.179,0.492,0.878,0.840,���k��,0.6,��
2017/12/26,00:10,0.882,1.469,0.926,1.748,1.178,0.491,0.875,0.840,�쓌,1.2,��
2017/12/26,00:20,0.884,1.471,0.926,1.744,1.178,0.490,0.877,0.842,��쐼,1.7,��
2017/12/26,00:30,0.883,1.473,0.924,1.746,1.179,0.490,0.877,0.840,���쓌,1.2,��
2017/12/26,00:40,0.885,1.470,0.925,1.744,1.179,0.491,0.876,0.841,�k�k��,1.9,��
2017/12/26,00:50,0.884,1.470,0.926,1.745,1.177,0.491,0.878,0.843,�k�k��,2.0,��
2017/12/26,01:00,0.884,1.471,0.925,1.747,1.177,0.490,0.877,0.839,��,1.4,��
2017/12/26,01:10,0.882,1.469,0.922,1.748,1.176,0.491,0.876,0.841,�쐼,1.7,��
2017/12/26,01:20,0.882,1.472,0.924,1.746,1.176,0.490,0.878,0.841,���쐼,3.1,��
2017/12/26,01:30,0.882,1.470,0.925,1.745,1.177,0.490,0.875,0.841,���k��,3.2,��
2017/12/26,01:40,0.886,1.471,0.925,1.745,1.177,0.490,0.876,0.842,���쐼,3.3,��
2017/12/26,01:50,0.882,1.473,0.926,1.748,1.178,0.490,0.876,0.841,��,3.2,��
2017/12/26,02:00,0.883,1.470,0.925,1.745,1.175,0.491,0.875,0.841,��,1.7,��
2017/12/26,02:10,0.885,1.472,0.924,1.747,1.179,0.492,0.877,0.840,��,1.7,��
2017/12/26,02:20,0.883,1.470,0.923,1.749,1.175,0.490,0.876,0.842,��,0.6,��
2017/12/26,02:30,0.882,1.473,0.926,1.745,1.176,0.489,0.876,0.841,��,1.5,��
2017/12/26,02:40,0.882,1.467,0.923,1.746,1.176,0.489,0.877,0.842,��쐼,2.6,��
2017/12/26,02:50,0.883,1.474,0.925,1.745,1.177,0.488,0.877,0.839,�쐼,3.2,��
2017/12/26,03:00,0.881,1.469,0.923,1.744,1.176,0.489,0.875,0.841,��쐼,4.0,��
2017/12/26,03:10,0.883,1.473,0.923,1.746,1.175,0.490,0.875,0.840,�쐼,4.1,��
2017/12/26,03:20,0.882,1.470,0.924,1.746,1.177,0.489,0.877,0.840,�쐼,4.8,��
2017/12/26,03:30,0.882,1.471,0.922,1.749,1.176,0.490,0.875,0.841,�쐼,5.1,��
2017/12/26,03:40,0.883,1.470,0.923,1.747,1.174,0.490,0.877,0.841,��,1.2,��
2017/12/26,03:50,0.882,1.471,0.925,1.747,1.174,0.489,0.877,0.840,�k�k��,1.2,��
2017/12/26,04:00,0.881,1.471,0.923,1.744,1.172,0.489,0.876,0.840,-,CALM,��
2017/12/26,04:10,0.882,1.472,0.924,1.747,1.176,0.489,0.874,0.841,��쐼,2.2,��
2017/12/26,04:20,0.881,1.469,0.925,1.747,1.176,0.490,0.875,0.842,��,3.6,��
2017/12/26,04:30,0.884,1.470,0.924,1.747,1.177,0.489,0.876,0.839,��,3.5,��
2017/12/26,04:40,0.884,1.472,0.923,1.744,1.176,0.489,0.876,0.839,��쐼,3.6,��
2017/12/26,04:50,0.882,1.470,0.923,1.744,1.175,0.489,0.875,0.840,���쐼,2.9,��
2017/12/26,05:00,0.881,1.471,0.923,1.745,1.177,0.488,0.876,0.841,���쐼,4.7,��
2017/12/26,05:10,0.879,1.472,0.923,1.743,1.173,0.490,0.876,0.841,���쐼,4.2,��
2017/12/26,05:20,0.880,1.472,0.923,1.744,1.176,0.490,0.877,0.841,��,4.8,��
2017/12/26,05:30,0.883,1.468,0.925,1.748,1.175,0.489,0.877,0.841,���쐼,3.5,��
2017/12/26,05:40,0.881,1.470,0.925,1.748,1.175,0.489,0.876,0.842,�쐼,3.0,��
2017/12/26,05:50,0.881,1.468,0.921,1.748,1.175,0.488,0.878,0.841,�쐼,3.0,��
2017/12/26,06:00,0.880,1.469,0.924,1.745,1.176,0.489,0.875,0.841,���쐼,2.5,��
2017/12/26,06:10,0.882,1.470,0.925,1.749,1.174,0.489,0.877,0.840,���쐼,2.3,��
2017/12/26,06:20,0.882,1.469,0.923,1.746,1.174,0.490,0.875,0.841,�쐼,1.7,��
2017/12/26,06:30,0.879,1.472,0.922,1.745,1.175,0.489,0.877,0.840,�쐼,3.2,��
2017/12/26,06:40,0.880,1.470,0.923,1.745,1.174,0.490,0.876,0.839,�쐼,4.1,��
2017/12/26,06:50,0.882,1.470,0.925,1.744,1.175,0.490,0.875,0.840,���쐼,5.5,��
2017/12/26,07:00,0.882,1.469,0.924,1.749,1.172,0.489,0.876,0.842,��쐼,4.8,��
2017/12/26,07:10,0.879,1.469,0.923,1.749,1.174,0.489,0.877,0.839,��쐼,3.3,��
2017/12/26,07:20,0.884,1.470,0.924,1.747,1.174,0.489,0.876,0.841,��쐼,2.8,��
2017/12/26,07:30,0.882,1.472,0.923,1.746,1.176,0.489,0.877,0.841,��,3.6,��
2017/12/26,07:40,0.881,1.471,0.922,1.747,1.175,0.489,0.878,0.839,��,3.6,��
2017/12/26,07:50,0.882,1.469,0.925,1.747,1.171,0.490,0.878,0.841,��쓌,3.1,��
2017/12/26,08:00,0.882,1.471,0.924,1.749,1.175,0.491,0.878,0.841,��,3.4,��
2017/12/26,08:10,0.884,1.470,0.924,1.747,1.175,0.491,0.877,0.841,��,3.3,��
2017/12/26,08:20,0.882,1.467,0.927,1.748,1.175,0.491,0.877,0.842,��,2.5,��
2017/12/26,08:30,0.883,1.470,0.922,1.747,1.174,0.490,0.880,0.842,��쓌,3.3,��
2017/12/26,08:40,0.884,1.470,0.927,1.750,1.175,0.490,0.878,0.841,��쓌,5.0,��
2017/12/26,08:50,0.886,1.474,0.925,1.750,1.177,0.492,0.878,0.843,��쓌,6.4,��
2017/12/26,09:00,0.884,1.471,0.925,1.749,1.175,0.490,0.880,0.842,��쓌,6.7,��
2017/12/26,09:10,0.886,1.471,0.926,1.749,1.176,0.490,0.881,0.842,��쓌,6.1,��
2017/12/26,09:20,0.885,1.472,0.929,1.750,1.177,0.489,0.878,0.843,��쓌,6.5,��
2017/12/26,09:30,0.886,1.472,0.925,1.750,1.177,0.491,0.881,0.842,��쓌,6.1,��
2017/12/26,09:40,0.888,1.470,0.927,1.750,1.177,0.490,0.881,0.843,��,5.9,��
2017/12/26,09:50,0.887,1.475,0.925,1.753,1.178,0.491,0.881,0.843,��쓌,6.6,��
2017/12/26,10:00,0.890,1.475,0.926,1.751,1.176,0.491,0.879,0.843,��쓌,7.1,��
2017/12/26,10:10,0.889,1.475,0.928,1.751,1.175,0.493,0.878,0.843,��,6.5,��
2017/12/26,10:20,0.890,1.477,0.928,1.754,1.172,0.493,0.879,0.844,��,6.8,��
2017/12/26,10:30,0.888,1.475,0.933,1.752,1.170,0.492,0.876,0.844,��,6.1,��
2017/12/26,10:40,0.892,1.473,0.931,1.751,1.171,0.492,0.880,0.844,��쐼,5.4,��
2017/12/26,10:50,0.890,1.476,0.931,1.753,-,0.494,0.880,0.844,�쐼,4.2,��
2017/12/26,11:00,0.889,1.473,0.930,1.753,-,0.496,0.880,0.844,�쐼,7.8,��
2017/12/26,11:10,0.891,1.478,0.928,1.754,-,0.495,0.881,0.845,���쐼,7.9,��
2017/12/26,11:20,0.893,1.473,0.931,1.753,-,0.496,0.881,0.846,���쐼,7.0,��
2017/12/26,11:30,0.893,1.476,0.932,1.755,-,0.495,0.882,0.845,�쐼,8.7,��
2017/12/26,11:40,0.892,1.476,0.930,1.757,-,0.497,0.881,0.845,���쐼,11.0,��
2017/12/26,11:50,0.895,1.479,0.937,1.757,-,0.497,0.881,0.844,��,9.5,�L
2017/12/26,12:00,0.892,1.477,0.934,1.759,-,0.497,0.882,0.847,��,11.7,��
2017/12/26,12:10,0.895,1.480,0.935,1.759,-,0.496,0.883,0.846,���쐼,12.2,�L
2017/12/26,12:20,0.895,1.481,0.935,1.757,-,0.496,0.883,0.847,���쐼,10.2,��
2017/12/26,12:30,0.895,1.480,0.933,1.757,-,0.496,0.882,0.849,���쐼,9.9,��
2017/12/26,12:40,0.895,1.479,0.934,1.759,-,0.496,0.885,0.847,���쐼,10.6,�L
2017/12/26,12:50,0.896,1.479,0.936,1.760,-,0.498,0.884,0.846,���쐼,9.8,�L
2017/12/26,13:00,0.893,1.475,0.933,1.759,-,0.500,0.882,0.845,��,9.0,��
2017/12/26,13:10,0.895,1.480,0.935,1.760,-,0.496,0.883,0.843,���쐼,12.0,�L
2017/12/26,13:20,0.895,1.479,0.934,1.762,-,0.498,0.881,0.844,��,14.1,��
2017/12/26,13:30,0.895,1.475,0.934,1.761,-,0.495,0.881,0.842,��,12.5,�L
2017/12/26,13:40,0.894,1.477,0.935,1.761,-,0.495,0.881,0.844,��,10.2,��
2017/12/26,13:50,0.897,1.479,0.934,1.763,-,0.499,0.882,0.844,��,10.3,��
2017/12/26,14:00,0.896,1.476,0.935,1.762,-,0.496,0.881,0.846,��,10.8,��
2017/12/26,14:10,0.897,1.479,0.935,1.760,-,0.498,0.880,0.846,��,10.0,�L
2017/12/26,14:20,0.896,1.479,0.935,1.762,-,0.497,0.882,0.849,���k��,8.4,�L
2017/12/26,14:30,0.896,1.478,0.934,1.759,-,0.495,0.882,0.847,���k��,7.3,�L
2017/12/26,14:40,0.895,1.478,0.935,1.762,-,0.496,0.882,0.847,��,8.1,�L
2017/12/26,14:50,0.896,1.479,0.933,1.762,-,0.496,0.880,0.848,��,6.9,�L
2017/12/26,15:00,0.894,1.482,0.933,1.759,-,0.497,0.882,0.847,��,6.9,�L
2017/12/26,15:10,0.896,1.483,0.935,1.764,-,0.498,0.879,0.847,���k��,6.3,�L
2017/12/26,15:20,0.894,1.484,0.931,1.760,-,0.496,0.883,0.846,���k��,7.4,�L
2017/12/26,15:30,0.894,1.485,0.933,1.758,-,0.496,0.881,0.846,��,7.8,�L
2017/12/26,15:40,0.893,1.483,0.932,1.759,-,0.496,0.882,0.845,��,8.2,��
2017/12/26,15:50,0.894,1.484,0.934,1.760,-,0.497,0.882,0.846,��,8.2,��
2017/12/26,16:00,0.893,1.483,0.933,1.757,-,0.498,0.882,0.848,��,7.7,��
2017/12/26,16:10,0.892,1.482,0.932,1.758,-,0.495,0.881,0.846,��,7.0,��
2017/12/26,16:20,0.890,1.481,0.934,1.761,1.180,0.496,0.883,0.845,��,8.2,�L
2017/12/26,16:30,0.892,1.484,0.933,1.759,1.184,0.495,0.881,0.846,��,8.2,�L
2017/12/26,16:40,0.890,1.485,0.933,1.758,1.186,0.496,0.882,0.847,��,7.9,�L
2017/12/26,16:50,0.889,1.483,0.933,1.757,1.183,0.496,0.881,0.846,��,7.4,�L
2017/12/26,17:00,0.890,1.483,0.933,1.760,1.187,0.495,0.883,0.844,��,8.9,�L
2017/12/26,17:10,0.890,1.481,0.933,1.758,1.186,0.495,0.880,0.846,���쐼,10.2,�L
2017/12/26,17:20,0.890,1.483,0.932,1.759,1.189,0.496,0.881,0.845,��,8.5,��
2017/12/26,17:30,0.891,1.485,0.932,1.761,1.189,0.495,0.881,0.848,��,9.1,�L
2017/12/26,17:40,0.890,1.484,0.933,1.757,1.187,0.494,0.882,0.846,�k��,8.8,�L
2017/12/26,17:50,0.888,1.482,0.933,1.758,1.183,0.495,0.882,0.845,���k��,8.2,�L
2017/12/26,18:00,0.891,1.483,0.933,1.757,1.189,0.494,0.881,0.847,�k��,7.1,��
2017/12/26,18:10,0.890,1.483,0.934,1.758,1.188,0.495,0.882,0.845,�k��,7.4,��
2017/12/26,18:20,0.892,1.483,0.933,1.757,1.185,0.496,0.880,0.845,�k��,8.0,��
2017/12/26,18:30,0.889,1.485,0.932,1.759,1.187,0.496,0.882,0.846,���k��,7.0,�L
2017/12/26,18:40,0.889,1.480,0.933,1.758,1.185,0.496,0.881,0.845,���k��,5.1,�L
2017/12/26,18:50,0.891,1.482,0.933,1.758,1.186,0.496,0.882,0.845,�k��,6.2,��
2017/12/26,19:00,0.892,1.485,0.933,1.757,1.183,0.494,0.882,0.845,�k��,5.5,��
2017/12/26,19:10,0.890,1.483,0.932,1.757,1.186,0.494,0.882,0.844,�k��,4.9,��
2017/12/26,19:20,0.894,1.484,0.934,1.761,1.187,0.495,0.880,0.844,�k��,3.7,��
2017/12/26,19:30,0.890,1.482,0.932,1.756,1.183,0.494,0.880,0.845,�k��,4.2,��
2017/12/26,19:40,0.892,1.478,0.933,1.757,1.186,0.495,0.880,0.844,���k��,3.9,��
2017/12/26,19:50,0.894,1.480,0.932,1.757,1.184,0.494,0.880,0.845,���k��,3.3,��
2017/12/26,20:00,0.889,1.481,0.930,1.757,1.185,0.494,0.880,0.845,���쐼,4.6,��
2017/12/26,20:10,0.891,1.480,0.930,1.757,1.184,0.492,0.880,0.843,���쐼,5.2,��
2017/12/26,20:20,0.891,1.480,0.930,1.757,1.184,0.493,0.880,0.845,��,4.9,��
2017/12/26,20:30,0.889,1.479,0.931,1.756,1.185,0.494,0.878,0.844,��,4.9,��
2017/12/26,20:40,0.890,1.481,0.931,1.758,1.184,0.495,0.881,0.844,���쐼,5.1,��
2017/12/26,20:50,0.889,1.481,0.932,1.757,1.185,0.493,0.880,0.844,��,4.9,��
2017/12/26,21:00,0.888,1.481,0.931,1.757,1.187,0.493,0.880,0.843,���쐼,4.7,��
2017/12/26,21:10,0.890,1.481,0.928,1.757,1.183,0.493,0.881,0.844,���쐼,5.5,��
2017/12/26,21:20,0.890,1.481,0.930,1.758,1.183,0.493,0.880,0.844,��,6.5,��
2017/12/26,21:30,0.889,1.481,0.929,1.757,1.185,0.492,0.880,0.843,��,6.4,��
2017/12/26,21:40,0.890,1.479,0.930,1.753,1.184,0.492,0.880,0.843,��,5.5,��
2017/12/26,21:50,0.888,1.478,0.930,1.755,1.183,0.490,0.881,0.844,��,4.9,��
2017/12/26,22:00,0.887,1.480,0.930,1.754,1.185,0.492,0.881,0.843,��,6.2,��
2017/12/26,22:10,0.887,1.481,0.930,1.756,1.183,0.491,0.880,0.845,��,7.0,��
2017/12/26,22:20,0.886,1.483,0.930,1.756,1.183,0.494,0.879,0.843,��,5.3,��
2017/12/26,22:30,0.887,1.480,0.930,1.757,1.182,0.493,0.881,0.841,���k��,6.4,��
2017/12/26,22:40,0.887,1.483,0.930,1.756,1.184,0.492,0.880,0.843,���k��,6.2,��
2017/12/26,22:50,0.888,1.482,0.931,1.753,1.183,0.492,0.881,0.844,���k��,7.1,��
2017/12/26,23:00,0.887,1.479,0.926,1.755,1.182,0.493,0.880,0.844,���k��,6.1,��
2017/12/26,23:10,0.886,1.479,0.929,1.755,1.184,0.490,0.882,0.843,���k��,6.8,��
2017/12/26,23:20,0.887,1.479,0.924,1.757,1.183,0.492,0.881,0.844,���k��,6.2,��
2017/12/26,23:30,0.887,1.480,0.927,1.756,1.184,0.494,0.880,0.843,���k��,5.8,��
2017/12/26,23:40,0.888,1.478,0.928,1.755,1.183,0.492,0.880,0.843,���k��,4.0,��
2017/12/26,23:50,0.889,1.480,0.928,1.755,1.181,0.493,0.879,0.844,���k��,4.2,��
